GW6484 Weather Reports


Display with metric or nautical units.
time (UTC)temp
F
wind
direction
speed
MPH
gust
MPH
rain 1hr
in
rain 24hr
in
rain mn
in
humidity
%
barometer
mb
20260504214053 80 86 5.0 8.0 0.47 0.69 0.69 91 1011.0
20260504213549 80 91 4.0 7.0 3.31 0.62 0.62 90 1011.0
20260504213047 80 82 6.0 7.0 0.00 0.55 0.55 90 1011.0
20260504212542 80 85 6.0 7.0 0.47 0.54 0.54 90 1011.0
20260504212040 80 68 2.0 4.0 0.00 0.53 0.53 90 1011.0
20260504211537 80 87 4.0 6.0 0.94 0.50 0.50 89 1010.7
20260504211034 80 112 1.0 6.0 2.83 0.42 0.42 89 1010.7
20260504210531 80 80 5.0 8.0 0.47 0.39 0.39 89 1010.4
20260504210027 80 52 0.0 0.0 0.00 0.39 0.39 88 1010.4
20260504205525 80 38 0.0 0.0 0.00 0.39 0.39 88 1010.4
20260504205023 80 76 0.0 0.0 0.00 0.39 0.39 88 1010.4
20260504204521 80 90 0.0 0.0 0.00 0.39 0.39 87 1010.4
20260504204020 80 53 0.0 0.0 0.00 0.39 0.39 87 1010.0
20260504203517 80 120 0.0 2.0 0.00 0.39 0.39 87 1010.0
20260504203015 81 98 1.0 4.0 0.00 0.39 0.39 88 1010.0
20260504202510 81 91 0.0 4.0 0.00 0.39 0.39 88 1009.7
20260504202007 80 67 0.0 0.0 0.00 0.39 0.39 87 1009.7
20260504201504 80 89 0.0 0.0 0.00 0.39 0.39 88 1009.7
20260504201002 80 78 0.0 2.0 0.00 0.39 0.39 88 1009.7
20260504200458 80 74 1.0 4.0 0.00 0.39 0.39 89 1009.7
20260504195955 80 60 0.0 0.0 0.00 0.39 0.39 89 1009.7
20260504195450 80 97 1.0 4.0 0.00 0.39 0.39 90 1009.7
20260504194947 80 68 0.0 3.0 0.00 0.39 0.39 90 1009.3
20260504194443 79 73 2.0 9.0 0.00 0.39 0.39 91 1009.3
20260504193939 79 45 0.0 0.0 0.00 0.39 0.39 91 1009.3
20260504193437 79 62 0.0 0.0 0.00 0.39 0.39 90 1009.0
20260504192935 79 159 0.0 0.0 0.00 0.39 0.39 90 1009.0
20260504192432 80 138 0.0 2.0 0.00 0.39 0.39 90 1009.0
20260504191931 80 193 3.0 5.0 0.00 0.39 0.39 90 1009.3
20260504191429 80 151 0.0 2.0 0.00 0.39 0.39 89 1009.3
20260504190924 80 79 0.0 3.0 0.00 0.39 0.39 89 1009.3
20260504190420 80 87 1.0 4.0 0.00 0.39 0.39 88 1009.3
20260504185917 81 86 1.0 4.0 0.00 0.38 0.38 88 1009.0
20260504185414 81 128 3.0 7.0 0.00 0.37 0.37 88 1009.0
20260504184910 81 88 1.0 5.0 0.00 0.37 0.37 88 1009.0
20260504184406 81 88 1.0 4.0 0.00 0.37 0.37 88 1008.7
20260504183902 80 94 2.0 4.0 0.00 0.37 0.37 89 1008.7
20260504183400 80 84 3.0 7.0 0.00 0.37 0.37 90 1008.7
20260504182857 79 93 4.0 7.0 0.00 0.37 0.37 91 1009.0
20260504182354 79 41 0.0 0.0 0.00 0.37 0.37 91 1009.0
20260504181850 79 193 0.0 1.0 0.00 0.37 0.37 91 1008.7
20260504181348 79 46 0.0 0.0 0.00 0.37 0.37 91 1008.7
20260504180847 79 53 0.0 0.0 0.00 0.37 0.37 91 1008.7
20260504180345 79 113 0.0 2.0 0.00 0.37 0.37 91 1008.7
20260504175843 79 49 0.0 0.0 0.00 0.37 0.37 91 1008.7
20260504175339 79 62 0.0 0.0 0.00 0.37 0.37 91 1008.7
20260504174838 79 123 0.0 3.0 0.00 0.37 0.37 91 1008.7
20260504174335 79 64 0.0 0.0 0.00 0.37 0.37 91 1008.7
20260504173832 79 63 0.0 0.0 0.00 0.37 0.37 91 1008.7
20260504173328 79 86 0.0 0.0 0.00 0.37 0.37 91 1008.3
20260504172825 79 48 0.0 0.0 0.00 0.37 0.37 91 1008.3
20260504172322 79 15 0.0 0.0 0.00 0.37 0.37 91 1008.3
20260504171818 79 352 0.0 2.0 0.00 0.37 0.37 91 1008.3
20260504171315 79 94 0.0 3.0 0.00 0.37 0.37 91 1008.3
20260504170812 79 355 0.0 0.0 0.00 0.37 0.37 91 1008.3
20260504170309 79 176 1.0 3.0 0.00 0.37 0.37 91 1008.0
20260504160227 79 120 0.0 0.0 0.00 0.37 0.37 92 1008.3
20260504150653 79 89 8.0 10.0 1.42 0.27 0.27 91 1009.3
20260504150150 80 83 8.0 10.0 1.42 0.22 0.22 91 1009.3
20260504141119 79 131 1.0 4.0 0.00 0.09 0.09 88 1009.7
20260504140616 80 325 0.0 3.0 0.47 0.08 0.08 87 1010.0
20260504140111 81 75 0.0 0.0 0.94 0.03 0.03 87 1010.0
20260504130539 82 75 0.0 3.0 0.00 0.00 0.00 85 1010.4
20260504110427 83 94 4.0 7.0 0.00 0.07 0.07 84 1010.7
20260504100343 81 46 0.0 0.0 0.00 0.07 0.07 89 1010.4
20260504081737 84 90 6.0 8.0 0.00 0.05 0.05 83 1009.3
20260504081233 84 83 6.0 8.0 0.00 0.05 0.05 84 1009.3
20260504080730 84 78 6.0 7.0 0.00 0.05 0.05 84 1009.3
20260504080226 84 74 6.0 7.0 0.00 0.05 0.05 84 1009.3
20260504070154 85 78 6.0 7.0 0.00 0.05 0.05 82 1008.7
20260504060120 86 76 5.0 7.0 0.00 0.05 0.05 79 1007.7
20260504050548 87 90 5.0 6.0 0.00 0.05 0.05 78 1007.7
20260504045541 87 82 4.0 6.0 0.00 0.05 0.05 79 1007.7
20260504045037 87 79 4.0 5.0 0.00 0.05 0.05 78 1007.7
20260504044534 87 79 4.0 6.0 0.00 0.05 0.05 77 1007.7
20260504044031 88 73 3.0 5.0 0.00 0.05 0.05 77 1007.7
20260504043528 88 83 5.0 6.0 0.00 0.05 0.05 76 1007.7
20260504043026 87 86 5.0 6.0 0.00 0.05 0.05 78 1007.7
20260504042523 87 86 4.0 6.0 0.00 0.05 0.05 79 1007.7
20260504042020 87 79 5.0 7.0 0.00 0.05 0.05 78 1007.7
20260504041515 88 93 5.0 6.0 0.00 0.05 0.05 78 1007.7
20260504041011 88 89 6.0 7.0 0.00 0.05 0.05 78 1007.7
20260504040509 88 99 4.0 7.0 0.00 0.05 0.05 78 1007.7
20260504040005 88 101 4.0 8.0 0.00 0.05 0.05 76 1007.7
20260504035503 90 93 2.0 9.0 0.00 0.05 0.05 73 1007.7
20260504034937 90 89 7.0 9.0 0.00 0.05 0.05 73 1007.7
20260504034434 90 89 7.0 9.0 0.00 0.05 0.05 73 1007.7
20260504033931 90 89 7.0 9.0 0.00 0.05 0.05 73 1007.7
20260504033429 89 82 5.0 6.0 0.00 0.05 0.05 73 1007.7
20260504032926 89 89 6.0 9.0 0.00 0.05 0.05 73 1007.7
20260504032423 89 84 5.0 6.0 0.00 0.05 0.05 74 1007.7
20260504031919 90 81 5.0 6.0 0.00 0.05 0.05 73 1007.7
20260504031417 89 90 6.0 8.0 0.00 0.05 0.05 73 1007.7
20260504030913 89 85 7.0 9.0 0.00 0.05 0.05 74 1007.7
20260504030410 89 85 7.0 9.0 0.00 0.05 0.05 74 1007.7
20260504025906 89 85 7.0 9.0 0.00 0.05 0.05 74 1007.7
20260504025403 89 77 5.0 7.0 0.00 0.05 0.05 73 1007.7
20260504024900 89 80 5.0 6.0 0.00 0.05 0.05 73 1007.7
20260504024356 89 86 6.0 8.0 0.00 0.05 0.05 73 1008.0
20260504023854 91 96 6.0 8.0 0.00 0.05 0.05 72 1007.7
20260504023350 90 89 6.0 9.0 0.00 0.05 0.05 73 1007.7
20260504022845 89 77 5.0 7.0 0.00 0.05 0.05 73 1008.0
20260504022343 89 89 7.0 9.0 0.00 0.05 0.05 74 1008.0
20260504021839 90 87 6.0 8.0 0.00 0.05 0.05 73 1008.0
20260504021337 90 80 6.0 7.0 0.00 0.05 0.05 73 1008.0
20260504020833 90 83 6.0 7.0 0.00 0.05 0.05 72 1008.3
20260504020330 90 84 6.0 7.0 0.00 0.05 0.05 71 1008.3
20260504015826 90 76 5.0 7.0 0.00 0.05 0.05 74 1008.3
20260504015322 89 78 5.0 6.0 0.00 0.05 0.05 74 1008.3
20260504014819 90 84 6.0 8.0 0.00 0.05 0.05 73 1008.7
20260504014315 90 85 6.0 9.0 0.00 0.05 0.05 73 1008.3
20260504013813 91 87 5.0 7.0 0.00 0.05 0.05 73 1008.3
20260504013310 90 90 6.0 8.0 0.00 0.05 0.05 74 1008.3
20260504012807 91 82 6.0 7.0 0.00 0.05 0.05 73 1008.7
20260504012305 90 89 5.0 9.0 0.00 0.05 0.05 74 1008.7
20260504011802 91 93 6.0 9.0 0.00 0.05 0.05 72 1008.7
20260504011258 90 98 6.0 9.0 0.00 0.05 0.05 73 1008.7
20260504010754 90 86 6.0 8.0 0.00 0.05 0.05 73 1008.7
20260504010250 89 87 5.0 7.0 0.00 0.05 0.05 74 1009.0
20260504005747 90 88 6.0 8.0 0.00 0.05 0.05 74 1009.3
20260504005244 89 86 5.0 7.0 0.00 0.05 0.05 73 1009.0
20260504004741 90 91 7.0 9.0 0.00 0.05 0.05 73 1009.3
20260504004239 91 85 5.0 7.0 0.00 0.05 0.05 71 1009.3
20260504003735 93 86 4.0 6.0 0.00 0.05 0.05 69 1009.3
20260504003232 94 66 2.0 3.0 0.00 0.05 0.05 69 1009.3
20260504002728 93 72 0.0 2.0 0.00 0.05 0.05 69 1009.7
20260504002225 92 64 2.0 3.0 0.00 0.05 0.05 71 1009.7
20260504001723 91 67 2.0 4.0 0.00 0.05 0.05 72 1009.7
20260504001220 91 74 3.0 5.0 0.00 0.05 0.05 72 1009.7
20260504000717 91 69 2.0 3.0 0.00 0.05 0.05 73 1009.7
20260504000214 91 68 2.0 3.0 0.00 0.05 0.05 74 1009.7
20260503235712 90 68 3.0 4.0 0.00 0.05 0.05 74 1009.7
20260503235209 90 71 5.0 6.0 0.00 0.05 0.05 77 1009.7
20260503234706 89 80 4.0 5.0 0.00 0.05 0.05 76 1010.0
20260503234205 90 71 2.0 5.0 0.00 0.05 0.05 72 1010.0
20260503233701 90 70 4.0 5.0 0.00 0.05 0.05 73 1009.7
20260503233157 90 78 5.0 6.0 0.00 0.05 0.05 72 1010.4
20260503232653 92 65 1.0 3.0 0.00 0.05 0.05 68 1010.0
20260503232151 93 74 3.0 4.0 0.00 0.05 0.05 70 1010.0
20260503231649 93 63 1.0 3.0 0.00 0.05 0.05 69 1010.0
20260503231145 92 64 1.0 3.0 0.00 0.05 0.05 68 1010.0
20260503230642 93 50 2.0 3.0 0.00 0.05 0.05 69 1009.7
20260503230139 92 65 1.0 3.0 0.00 0.05 0.05 71 1009.7
20260503225637 92 59 1.0 3.0 0.00 0.05 0.05 70 1010.0
20260503225136 92 47 0.0 0.0 0.00 0.05 0.05 70 1010.0
20260503224634 92 65 1.0 3.0 0.00 0.05 0.05 70 1010.0
20260503224132 92 76 2.0 4.0 0.00 0.05 0.05 70 1009.7
20260503223630 92 83 0.0 0.0 0.00 0.05 0.05 70 1009.7
20260503223125 92 58 0.0 2.0 0.00 0.05 0.05 70 1010.0
20260503222623 91 80 0.0 0.0 0.00 0.05 0.05 71 1010.0
20260503222120 91 60 0.0 0.0 0.00 0.05 0.05 73 1010.0
20260503221619 89 56 0.0 2.0 0.00 0.05 0.05 74 1010.0
20260503221116 89 20 2.0 4.0 0.00 0.05 0.05 72 1010.0
20260503220613 90 62 0.0 3.0 0.00 0.05 0.05 74 1010.0
20260503220109 89 37 0.0 0.0 0.00 0.05 0.05 75 1010.0
20260503215606 89 47 0.0 0.0 0.00 0.05 0.05 75 1010.0
20260503215103 89 52 0.0 0.0 0.00 0.05 0.05 74 1010.0
20260503214601 90 76 0.0 2.0 0.00 0.05 0.05 73 1010.0